Simultaneous Nadir Overpasses (SNOs) Predictions

Prediction of SNOs between LANDSAT-8 and METOP-A Satellite Orbit:

Table of predicted SNOs for the next 14.0 days since TLE Epoch: 11/22/2014
Index Date (LANDSAT-8) Time (LANDSAT-8) Lat,Lon (LANDSAT-8) SZA (LANDSAT-8 ) Date (METOP-A) Time (METOP-A) Lat,Lon (METOP-A) SZA (METOP-A ) Distance(km) Time Diff (sec)
1 11/24/2014 09:10:28 -81.10, -98.07 76.11 11/24/2014 09:09:40 -81.10, -98.05 76.12 0.72 48
2 11/24/2014 09:59:53 81.14, 70.13 103.99 11/24/2014 10:00:18 81.14, 70.21 104.01 1.32 25
3 11/27/2014 04:44:45 -81.11, -31.45 75.56 11/27/2014 04:44:03 -81.11, -31.44 75.58 0.11 42
4 11/27/2014 05:34:11 81.12, 136.37 104.47 11/27/2014 05:34:42 81.13, 136.41 104.50 0.98 31
5 11/30/2014 00:19:04 -81.12, 35.10 75.08 11/30/2014 00:18:26 -81.12, 35.08 75.10 0.61 38
6 11/30/2014 01:08:30 81.13,-157.11 104.95 11/30/2014 01:09:05 81.13,-157.10 104.97 0.30 35
7 12/02/2014 19:53:26 -81.10, 101.22 74.72 12/02/2014 19:52:50 -81.10, 101.15 74.74 1.26 36
8 12/02/2014 20:42:51 81.13, -90.65 105.36 12/02/2014 20:43:28 81.13, -90.68 105.38 0.57 37
9 12/05/2014 15:27:48 -81.10, 167.64 74.37 12/05/2014 15:27:12 -81.10, 167.52 74.39 2.06 36




NCC Satellite Simultaneous Nadir Overpasses (SNOs) Prediction Service
